| time (UTC) | temp F | wind direction | speed MPH | gust MPH | rain 1hr in | rain 24hr in | rain mn in | humidity % | barometer mb |
| 20260509213038 | 62 | 200 | 6.0 | 12.0 | 0.00 | 0.00 | 0.00 | 38 | 1018.0 |
| 20260509211538 | 61 | 294 | 2.0 | 8.0 | 0.00 | 0.00 | 0.00 | 38 | 1018.1 |
| 20260509210044 | 62 | 354 | 5.0 | 16.0 | 0.00 | 0.00 | 0.00 | 38 | 1018.2 |
| 20260509204538 | 62 | 277 | 2.0 | 8.0 | 0.00 | 0.00 | 0.00 | 37 | 1018.2 |
| 20260509203037 | 62 | 289 | 3.0 | 10.0 | 0.00 | 0.00 | 0.00 | 36 | 1018.2 |
| 20260509201540 | 62 | 274 | 3.0 | 9.0 | 0.00 | 0.00 | 0.00 | 36 | 1017.9 |
| 20260509200040 | 62 | 252 | 6.0 | 13.0 | 0.00 | 0.00 | 0.00 | 36 | 1017.9 |
| 20260509194551 | 62 | 0 | 1.0 | 5.0 | 0.00 | 0.00 | 0.00 | 35 | 1017.9 |
| 20260509193036 | 62 | 272 | 7.0 | 11.0 | 0.00 | 0.00 | 0.00 | 35 | 1017.9 |
| 20260509191537 | 62 | 283 | 8.0 | 12.0 | 0.00 | 0.00 | 0.00 | 35 | 1017.9 |
| 20260509190040 | 61 | 139 | 1.0 | 10.0 | 0.00 | 0.00 | 0.00 | 35 | 1018.1 |
| 20260509184536 | 61 | 270 | 2.0 | 7.0 | 0.00 | 0.00 | 0.00 | 36 | 1018.2 |
| 20260509183040 | 61 | 111 | 3.0 | 9.0 | 0.00 | 0.00 | 0.00 | 36 | 1018.2 |
| 20260509181542 | 61 | 214 | 4.0 | 9.0 | 0.00 | 0.00 | 0.00 | 36 | 1018.0 |
| 20260509180052 | 62 | 214 | 4.0 | 9.0 | 0.00 | 0.00 | 0.00 | 35 | 1018.0 |
| 20260509174540 | 61 | 60 | 2.0 | 8.0 | 0.00 | 0.00 | 0.00 | 37 | 1017.9 |
| 20260509173052 | 60 | 199 | 6.0 | 12.0 | 0.00 | 0.00 | 0.00 | 36 | 1017.8 |
| 20260509171541 | 60 | 215 | 5.0 | 9.0 | 0.00 | 0.00 | 0.00 | 38 | 1017.6 |
| 20260509170037 | 59 | 191 | 4.0 | 7.0 | 0.00 | 0.00 | 0.00 | 38 | 1017.7 |
| 20260509164541 | 59 | 224 | 3.0 | 6.0 | 0.00 | 0.00 | 0.00 | 37 | 1017.6 |
| 20260509163036 | 60 | 202 | 4.0 | 10.0 | 0.00 | 0.00 | 0.00 | 37 | 1017.5 |
| 20260509161552 | 60 | 359 | 0.0 | 5.0 | 0.00 | 0.00 | 0.00 | 38 | 1017.4 |
| 20260509160039 | 59 | 347 | 3.0 | 7.0 | 0.00 | 0.00 | 0.00 | 39 | 1017.2 |
| 20260509154548 | 58 | 8 | 2.0 | 8.0 | 0.00 | 0.00 | 0.00 | 42 | 1017.1 |
| 20260509153052 | 57 | 50 | 5.0 | 10.0 | 0.00 | 0.00 | 0.00 | 43 | 1017.1 |
| 20260509151536 | 56 | 62 | 4.0 | 8.0 | 0.00 | 0.00 | 0.00 | 45 | 1017.1 |
| 20260509150038 | 55 | 79 | 3.0 | 6.0 | 0.00 | 0.00 | 0.00 | 47 | 1016.8 |
| 20260509144536 | 54 | 77 | 2.0 | 7.0 | 0.00 | 0.00 | 0.00 | 48 | 1016.6 |
| 20260509143037 | 53 | 67 | 2.0 | 5.0 | 0.00 | 0.00 | 0.00 | 49 | 1016.4 |
| 20260509141541 | 52 | 70 | 3.0 | 7.0 | 0.00 | 0.00 | 0.00 | 50 | 1016.3 |
| 20260509140052 | 52 | 75 | 2.0 | 8.0 | 0.00 | 0.00 | 0.00 | 51 | 1016.4 |
| 20260509134534 | 51 | 103 | 3.0 | 6.0 | 0.00 | 0.00 | 0.00 | 52 | 1016.2 |
| 20260509133039 | 51 | 66 | 2.0 | 6.0 | 0.00 | 0.00 | 0.00 | 52 | 1016.2 |
| 20260509131537 | 51 | 64 | 4.0 | 8.0 | 0.00 | 0.00 | 0.00 | 53 | 1016.0 |
| 20260509130037 | 50 | 56 | 3.0 | 6.0 | 0.00 | 0.00 | 0.00 | 53 | 1015.9 |
| 20260509124539 | 50 | 72 | 4.0 | 7.0 | 0.00 | 0.00 | 0.00 | 53 | 1015.7 |
| 20260509123037 | 50 | 75 | 4.0 | 6.0 | 0.00 | 0.00 | 0.00 | 53 | 1015.5 |
| 20260509121535 | 50 | 56 | 2.0 | 5.0 | 0.00 | 0.00 | 0.00 | 54 | 1015.1 |
| 20260509120039 | 50 | 0 | 0.0 | 2.0 | 0.00 | 0.00 | 0.00 | 54 | 1015.0 |
| 20260509114537 | 50 | 198 | 0.0 | 3.0 | 0.00 | 0.00 | 0.00 | 54 | 1015.0 |
| 20260509113037 | 50 | 189 | 2.0 | 6.0 | 0.00 | 0.00 | 0.00 | 53 | 1014.6 |
| 20260509111536 | 51 | 304 | 2.0 | 6.0 | 0.00 | 0.00 | 0.00 | 52 | 1014.5 |
| 20260509110040 | 51 | 26 | 1.0 | 3.0 | 0.00 | 0.00 | 0.00 | 52 | 1014.1 |
| 20260509104538 | 51 | 26 | 2.0 | 4.0 | 0.00 | 0.00 | 0.00 | 50 | 1014.1 |
| 20260509103045 | 52 | 0 | 0.0 | 3.0 | 0.00 | 0.00 | 0.00 | 50 | 1014.1 |
| 20260509101539 | 53 | 0 | 0.0 | 2.0 | 0.00 | 0.00 | 0.00 | 49 | 1013.9 |
| 20260509100037 | 53 | 0 | 0.0 | 2.0 | 0.00 | 0.00 | 0.00 | 49 | 1013.8 |
| 20260509094543 | 53 | 349 | 3.0 | 7.0 | 0.00 | 0.00 | 0.00 | 49 | 1013.7 |
| 20260509093040 | 53 | 351 | 4.0 | 8.0 | 0.00 | 0.00 | 0.00 | 49 | 1013.5 |
| 20260509091547 | 53 | 345 | 4.0 | 7.0 | 0.00 | 0.00 | 0.00 | 49 | 1013.4 |
| 20260509090050 | 53 | 345 | 4.0 | 7.0 | 0.00 | 0.00 | 0.00 | 49 | 1013.3 |
| 20260509084537 | 53 | 358 | 4.0 | 8.0 | 0.00 | 0.00 | 0.00 | 49 | 1013.0 |
| 20260509083040 | 52 | 354 | 5.0 | 9.0 | 0.00 | 0.00 | 0.00 | 50 | 1013.0 |
| 20260509081537 | 52 | 341 | 4.0 | 7.0 | 0.00 | 0.00 | 0.00 | 50 | 1012.9 |
| 20260509080046 | 53 | 8 | 2.0 | 3.0 | 0.00 | 0.00 | 0.00 | 47 | 1013.0 |
| 20260509074551 | 54 | 8 | 0.0 | 2.0 | 0.00 | 0.00 | 0.00 | 47 | 1013.0 |
| 20260509073057 | 54 | 0 | 0.0 | 1.0 | 0.00 | 0.00 | 0.00 | 46 | 1012.9 |
| 20260509071542 | 54 | 8 | 2.0 | 4.0 | 0.00 | 0.00 | 0.00 | 46 | 1012.7 |
| 20260509070044 | 54 | 296 | 2.0 | 5.0 | 0.00 | 0.00 | 0.00 | 46 | 1012.7 |
| 20260509064539 | 55 | 274 | 4.0 | 5.0 | 0.00 | 0.00 | 0.00 | 45 | 1012.5 |
| 20260509063053 | 55 | 17 | 5.0 | 10.0 | 0.00 | 0.00 | 0.00 | 45 | 1012.3 |
| 20260509061539 | 55 | 26 | 7.0 | 12.0 | 0.00 | 0.00 | 0.00 | 44 | 1012.2 |
| 20260509060054 | 56 | 36 | 10.0 | 12.0 | 0.00 | 0.00 | 0.00 | 43 | 1012.2 |
| 20260509054537 | 56 | 35 | 9.0 | 12.0 | 0.00 | 0.00 | 0.00 | 42 | 1012.1 |
| 20260509053049 | 56 | 27 | 8.0 | 13.0 | 0.00 | 0.00 | 0.00 | 41 | 1011.8 |
| 20260509051538 | 57 | 21 | 7.0 | 11.0 | 0.00 | 0.00 | 0.00 | 39 | 1011.6 |
| 20260509050039 | 58 | 40 | 8.0 | 13.0 | 0.00 | 0.00 | 0.00 | 37 | 1011.6 |
| 20260509044537 | 59 | 28 | 8.0 | 14.0 | 0.00 | 0.00 | 0.00 | 33 | 1011.4 |
| 20260509043045 | 60 | 26 | 10.0 | 17.0 | 0.00 | 0.00 | 0.00 | 31 | 1011.2 |
| 20260509041539 | 60 | 16 | 6.0 | 11.0 | 0.00 | 0.00 | 0.00 | 30 | 1010.9 |
| 20260509040050 | 60 | 356 | 6.0 | 9.0 | 0.00 | 0.00 | 0.00 | 30 | 1010.5 |
| 20260509034537 | 60 | 6 | 6.0 | 11.0 | 0.00 | 0.00 | 0.00 | 28 | 1010.3 |
| 20260509033054 | 61 | 341 | 8.0 | 12.0 | 0.00 | 0.00 | 0.00 | 28 | 1010.0 |
| 20260509031543 | 62 | 6 | 9.0 | 14.0 | 0.00 | 0.00 | 0.00 | 27 | 1009.8 |
| 20260509030038 | 62 | 356 | 7.0 | 10.0 | 0.00 | 0.00 | 0.00 | 27 | 1009.5 |
| 20260509024536 | 63 | 351 | 7.0 | 10.0 | 0.00 | 0.00 | 0.00 | 26 | 1009.4 |
| 20260509023037 | 64 | 356 | 7.0 | 10.0 | 0.00 | 0.00 | 0.00 | 25 | 1009.3 |
| 20260509021537 | 66 | 346 | 7.0 | 12.0 | 0.00 | 0.00 | 0.00 | 23 | 1009.1 |
| 20260509020041 | 66 | 13 | 9.0 | 14.0 | 0.00 | 0.00 | 0.00 | 22 | 1009.1 |
| 20260509014541 | 67 | 345 | 10.0 | 16.0 | 0.00 | 0.00 | 0.00 | 21 | 1009.0 |
| 20260509013041 | 68 | 332 | 14.0 | 19.0 | 0.00 | 0.00 | 0.00 | 20 | 1008.9 |
| 20260509011544 | 68 | 8 | 11.0 | 19.0 | 0.00 | 0.00 | 0.00 | 21 | 1008.9 |
| 20260509010039 | 69 | 335 | 12.0 | 20.0 | 0.00 | 0.00 | 0.00 | 21 | 1008.9 |
| 20260509004538 | 69 | 346 | 16.0 | 21.0 | 0.00 | 0.00 | 0.00 | 20 | 1008.9 |
| 20260509003043 | 70 | 347 | 13.0 | 20.0 | 0.00 | 0.00 | 0.00 | 21 | 1008.9 |
| 20260509001541 | 70 | 321 | 12.0 | 23.0 | 0.00 | 0.00 | 0.00 | 20 | 1008.7 |
| 20260509000038 | 70 | 304 | 18.0 | 29.0 | 0.00 | 0.00 | 0.00 | 19 | 1008.7 |
| 20260508234537 | 71 | 302 | 16.0 | 27.0 | 0.00 | 0.00 | 0.00 | 19 | 1008.7 |
| 20260508233038 | 71 | 315 | 19.0 | 31.0 | 0.00 | 0.00 | 0.00 | 17 | 1008.6 |
| 20260508231535 | 72 | 310 | 18.0 | 31.0 | 0.00 | 0.00 | 0.00 | 18 | 1008.5 |
| 20260508230041 | 72 | 279 | 20.0 | 27.0 | 0.00 | 0.00 | 0.00 | 17 | 1008.7 |
| 20260508224545 | 72 | 293 | 21.0 | 32.0 | 0.00 | 0.00 | 0.00 | 16 | 1008.7 |
| 20260508223038 | 72 | 295 | 19.0 | 30.0 | 0.00 | 0.00 | 0.00 | 16 | 1008.7 |
| 20260508221538 | 72 | 337 | 22.0 | 33.0 | 0.00 | 0.00 | 0.00 | 15 | 1008.5 |
| 20260508220039 | 72 | 325 | 22.0 | 33.0 | 0.00 | 0.00 | 0.00 | 16 | 1008.6 |
| 20260508214543 | 72 | 304 | 21.0 | 29.0 | 0.00 | 0.00 | 0.00 | 16 | 1008.9 |